Content
SEND FEEDBACK

Daily
Averages
Monthly
Summary
United States of America

BATTENVILLE, NEW YORK


Home > North America > United States > New York
Elevation: 400 feet     Latitude: 43 07N     Longitude: 073 25W

WEATHER
 
SELECT A DAY
Number of Records: 179,179;   Date Range: 12/9/98 - 9/18/14
 
SHARE

PRINT THIS DATA

[ ← Previous Day ]
WEATHER ALMANAC - JULY 14, 2014
[ Next Day → ]
[ °C ]   °F
Weather ElementAverageHighLow
Temperature71.6 °F82.9 °F (1:54 pm)64 °F (5:10 am)
Dewpoint66.4 °F70 °F (1:02 am)62.1 °F (6:03 am)
Humidity84.7 %100 % (6:52 am)53 % (1:54 pm)
Barometer29.89 in29.93 in (8:29 am)29.83 in (4:54 pm)
Wind Speed2.7 mph8.1 mph (1:54 pm)
Weather ElementAverage
Visibility5.7 mi
Wind DirectionE (91.5 °)

Weather ElementTotal
Precipitation0.58 in
Cooling Degree Days8.5 (Base 65)
Growing Degree Days23.5 (Base 50)
Averaged from 47 records on July 14, 2014
WEATHER CONDITIONS BREAKOUT
WIND DIRECTION BREAKOUT
WEATHER BY HOUR - JULY 14, 2014
[ °C ]   °F
Local TimeTemperatureDewpointHumidityBarometerVisibilityWind DirectionWind SpeedGust SpeedPrecipitationEventsConditions
12:54 AM73.0 °F69.1 °F87 %29.86 in2.5 miWest (270°)6.9 mph0.06 inRainRain
1:02 AM72.0 °F70.0 °F93 %29.88 in1.0 miNW (320°)4.6 mph0.14 inRainHeavy Rain
1:14 AM72.0 °F70.0 °F93 %29.88 in3.0 miWSW (250°)5.8 mph0.19 inRainLight Rain
1:54 AM72.0 °F69.1 °F91 %29.87 in9.0 miWSW (240°)6.9 mph0.19 inMostly Cloudy
2:05 AM72.0 °F69.1 °F91 %29.89 in9.0 miWSW (240°)5.8 mphMostly Cloudy
2:54 AM70.0 °F68.0 °F93 %29.86 in7.0 miWest (260°)3.5 mphPartly Cloudy
3:14 AM69.1 °F66.9 °F93 %29.88 in1.0 miCalmClear
3:20 AM68.0 °F66.0 °F93 %29.88 in0.2 miCalmFogFog
3:33 AM66.9 °F66.0 °F97 %29.88 in0.2 miESE (120°)3.5 mphFogFog
3:54 AM68.0 °F66.0 °F93 %29.87 in0.2 miCalmFogFog
4:54 AM66.0 °F64.0 °F93 %29.88 in0.2 miSouth (170°)3.5 mphFogFog
5:02 AM64.9 °F64.0 °F97 %29.89 in0.2 miCalmFogFog
5:10 AM64.0 °F63.0 °F96 %29.89 in0.2 miCalmFogFog
5:54 AM64.0 °F63.0 °F96 %29.88 in0.2 miCalmFogFog
6:03 AM64.0 °F62.1 °F93 %29.90 in0.5 miCalmFogFog
6:13 AM64.0 °F63.0 °F96 %29.90 in0.2 miCalmFogFog
6:24 AM64.0 °F63.0 °F96 %29.91 in0.5 miCalmFogFog
6:32 AM64.9 °F64.0 °F97 %29.91 in0.8 miCalmClear
6:45 AM66.0 °F64.9 °F96 %29.91 in1.2 miCalmPartly Cloudy
6:52 AM66.2 °F66.2 °F100 %29.92 in3.0 miCalmScattered Clouds
6:54 AM66.9 °F66.0 °F97 %29.91 in2.5 miCalmScattered Clouds
6:58 AM66.9 °F66.0 °F97 %29.92 in1.8 miCalmMostly Cloudy
7:06 AM68.0 °F66.9 °F96 %29.92 in2.0 miCalmScattered Clouds
7:14 AM69.1 °F68.0 °F96 %29.92 in4.0 miSSE (150°)3.5 mphScattered Clouds
7:21 AM69.1 °F68.0 °F96 %29.92 in5.0 miSE (130°)3.5 mphMostly Cloudy
7:30 AM69.1 °F68.0 °F96 %29.92 in5.0 miCalmPartly Cloudy
7:54 AM71.1 °F68.0 °F90 %29.91 in10.0 miSSW (200°)4.6 mphClear
8:29 AM72.0 °F68.0 °F87 %29.93 in10.0 miWSW (240°)4.6 mphMostly Cloudy
8:54 AM73.9 °F68.0 °F82 %29.91 in10.0 miCalmMostly Cloudy
9:33 AM75.0 °F68.0 °F79 %29.93 in10.0 miVariable4.6 mphMostly Cloudy
9:54 AM75.9 °F68.0 °F76 %29.91 in10.0 miCalmMostly Cloudy
10:14 AM75.0 °F68.0 °F79 %29.92 in10.0 miVariable4.6 mphScattered Clouds
10:41 AM75.9 °F68.0 °F76 %29.92 in10.0 miVariable4.6 mphMostly Cloudy
10:54 AM77.0 °F66.9 °F71 %29.90 in10.0 miVariable3.5 mphMostly Cloudy
11:03 AM79.0 °F68.0 °F69 %29.92 in10.0 miVariable3.5 mphScattered Clouds
11:54 AM80.1 °F66.9 °F64 %29.90 in10.0 miWest (280°)3.5 mphPartly Cloudy
12:54 PM80.1 °F66.9 °F64 %29.89 in10.0 miVariable4.6 mphMostly Cloudy
1:54 PM82.9 °F64.0 °F53 %29.87 in10.0 miSouth (180°)8.1 mphClear
2:54 PM82.9 °F64.0 °F53 %29.86 in10.0 miWSW (240°)6.9 mphScattered Clouds
4:54 PM80.1 °F64.0 °F58 %29.83 in10.0 miSouth (180°)4.6 mphPartly Cloudy
5:54 PM78.1 °F66.9 °F68 %29.84 in10.0 miSSW (210°)4.6 mphClear
6:54 PM75.9 °F68.0 °F76 %29.83 in10.0 miNW (310°)4.6 mphScattered Clouds
7:54 PM75.9 °F66.9 °F74 %29.83 in10.0 miNW (310°)4.6 mphClear
8:54 PM73.9 °F66.9 °F79 %29.85 in7.0 miCalmMostly Cloudy
9:54 PM72.0 °F66.9 °F84 %29.86 in10.0 miCalm0.00 inClear
10:54 PM75.0 °F63.0 °F66 %29.86 in10.0 miVariable4.6 mphPartly Cloudy
11:54 PM73.0 °F63.0 °F71 %29.84 in10.0 miVariable4.6 mphClear
Hourly data recorded from KDDH, located miles away from Battenville, New York







STORIES FROM OUR PARTNERS